SCP
0 0 0 0 0 0 0 0 0 0 -0 -0 -0 -0 -0 -0 0 0 0 0 0 0 0 0 0 0 0 0 0 0 0 0 0 0 0 0 0 0 0 0 0 0 0 0
0 0 0 0 0 0 0 0 0 0 0 0 0 0 0 -0 -0 0 0 0 0 0 0 0 0 0 0 0 0 0 0 0 0 0 0 0 0 0 0 0 0 0 0 0
0 0 0 0 0 0 0 0 0 0 0 0 0 0 0 -0 -0 0 0 0 0 0 0 0 0 0 0 0 0 0 0 0 0 0 0 0 0 0 0 0 0 0 0 0
0 0 0 0 0 0 0 0 0 0 0 0 0 0 0 0 0 0 0 0 0 0 0 0 0 0 0 0 0 -0 0 0 0 0 0 0 0 0 0 0 0 0 0 0
0 0 0 0 0 0 0 0 0 0 0 0 0 0 0 0 0 0 0 0 0 0 0 0 0 0 0 0 0 -0 -0 -0 -0 -0 0 0 0 0 0 0 0 0 0 0
0 0 0 0 0 0 0 0 0 0 0 0 0 0 0 0 0 0 0 0 0 0 0 0 0 0 0 0 0 0 0 -0 -0 -0 -0 0 0 0 0 0 0 0 0 0
0 0 0 0 0 0 0 0 0 0 0 0 0 0 0 0 0 0 0 0 0 0 0 0 0 0 0 0 0 0 0 0 0 -0 -0 0 0 0 0 0 0 0 0 0
0 0 0 0 0 0 0 0 0 0 0 0 0 0 0 0 0 0 0 0 0 0 0 0 0 0 0 0 0 0 0 0 0 0 -0 -0 0 0 0 0 0 0 0 0
0 0 0 0 0 0 0 -0 -0 -0 0 0 0 0 0 0 0 0 0 0 0 0 0 0 0 0 0 0 -0 -0 -0 0 0 0 0 -0 0 0 0 0 0 0 0 0
0 0 0 0 0 0 -0 -0 -0 0 0 0 0 0 0 0 0 0 0 0 0 0 0 0 0 0 0 0 0 -0 0 0 0 0 0 0 0 0 0 0 0 0 0 0
0 0 0 0 0 0 0 0 0 0 0 0 0 0 0 0 0 0 0 0 0 0 0 0 0 0 0 0 0 0 0 0 -0 -0 0 0 0 0 0 0 0 0 0 0
0 0 0 0 0 0 0 0 0 0 0 0 0 0 0 0 0 0 0 0 0 0 0 0 0 0 0 0 0 0 0 0 0 0 0 0 0 0 0 0 0 0 0 0
0 0 0 0 0 0 0 0 0 0 0 0 0 0 0 0 0 0 -0 -0 0 0 0 0 0 0 0 0 0 0 0 0 0 0 0 0 0 0 0 0 0 0 0 0
0 0 -0 0 0 0 0 0 0 0 0 0 0 0 0 0 0 0 0 0 0 0 0 0 0 0 0 0 0 0 0 0 0 0 0 0 0 0 0 0 0 0 0 0
-0 -0 -0 0 0 0 0 0 0 0 0 0 0 0 0 0 0 0 0 0 0 0 0 0 0 0 0 0 0 0 0 0 0 0 0 0 0 0 0 0 0 0 0 0
0 0 0 0 0 0 0 0 0 0 0 0 0 0 0 0 0 0 0 0 0 0 0 0 0 0 0 0 0 0 0 0 0 0 0 0 0 0 0 0 0 0 0 0
0 0 0 0 0 0 0 0 0 0 0 0 0 0 0 0 0 0 0 0 0 0 0 0 0 0 0 0 0 0 0 0 0 0 0 0 0 0 0 0 0 0 0 0
0 0 0 0 0 0 0 0 0 0 0 0 0 0 0 0 0 0 0 0 0 0 0 0 0 0 0 0 0 0 0 0 0 0 0 0 0 0 0 0 0 0 0 0
0 0 0 0 0 0 0 0 0 0 0 0 0 0 0 0 0 0 0 0 0 0 0 0 0 0 0 0 0 0 0 0 0 0 0 0 0 0 0 0 0 0 0 0
0 0 0 0 0 0 0 0 0 0 0 0 0 0 0 0 0 0 0 0 0 0 0 0 0 0 0 0 0 0 0 0 0 0 0 0 0 0 0 0 0 0 0 0
0 0 0 0 0 0 0 0 0 0 0 0 0 0 0 0 0 0 0 0 0 0 0 0 0 0 0 0 0 0 0 0 0 0 0 0 0 0 0 0 0 0 0 0
0 0 0 0 0 0 0 0 0 0 0 0 0 0 0 0 0 0 0 0 0 0 0 0 0 0 0 0 0 0 0 0 0 0 0 0 0 0 0 0 0 0 0 0
0 0 0 0 0 0 0 0 -0 -0 0 0 0 0 0 0 0 0 0 0 0 0 0 0 0 0 0 0 0 0 0 0 0 0 0 0 0 0 0 0 0 0 0 0
0 0 0 0 0 0 -0 -0 -0 -0 0 0 0 0 0 0 0 0 0 0 0 0 0 0 0 0 0 0 0 0 0 0 0 0 0 0 0 0 0 0 0 0 0 0
0 0 0 0 0 0 0 0 0 0 0 0 0 0 0 0 0 0 0 0 0 0 0 0 0 0 0 0 0 0 0 0 0 0 0 0 0 0 0 0 0 0 0 0
0 0 0 0 0 0 0 0 0 0 0 0 0 0 0 0 0 0 0 0 0 0 0 0 0 0 0 0 0 0 0 0 0 0 0 0 0 0 0 0 0 0 0 0
0 0 0 0 0 0 0 0 0 0 0 0 0 0 0 0 0 0 0 0 0 0 0 0 0 0 0 0 0 0 0 0 0 0 0 0 0 0 0 0 0 0 0 0
Wind_Speed
7 6 4 6 7 6 8 8 8 8 7 11 7 5 4 4 3 3 3 2 2 2 2 2 2 3 3 3 3 4 4 4 5 4 3 3 3 3 3 3 4 4 3 3
5 4 5 7 9 8 8 7 9 8 10 8 5 3 3 3 3 3 4 3 3 2 2 3 3 3 3 3 3 4 4 5 4 3 3 3 4 4 3 4 3 3 4 4
4 3 3 8 8 8 6 6 6 8 8 4 3 4 3 3 3 3 4 4 4 3 4 4 3 3 3 3 3 4 4 4 3 4 4 4 4 3 4 4 4 4 4 4
2 3 6 6 1 5 5 5 6 5 5 4 5 5 4 3 3 4 4 4 4 4 4 3 2 2 2 2 3 3 3 3 4 4 4 4 4 4 4 4 4 4 5 5
2 3 8 6 2 4 4 4 4 6 5 4 3 3 3 2 2 4 4 4 4 4 3 3 2 2 2 2 2 3 4 4 4 4 4 4 4 5 4 3 4 4 4 5
4 4 7 5 1 1 3 4 3 3 3 2 2 3 5 3 2 3 4 3 3 3 2 2 2 1 1 2 2 4 4 4 4 4 4 5 5 4 3 4 4 4 4 4
6 6 9 6 1 2 3 5 2 2 3 2 3 5 5 5 4 3 4 4 3 2 2 3 2 1 1 2 4 5 3 3 3 3 4 4 4 3 3 3 3 4 4 4
5 6 9 2 4 4 4 2 2 2 2 3 5 5 5 5 5 4 4 4 3 2 3 3 1 2 3 4 5 3 2 2 3 3 3 3 3 3 3 3 4 4 3 4
8 7 2 2 3 2 1 2 3 3 4 4 5 5 5 5 5 5 5 4 3 3 4 4 2 2 4 5 2 2 2 3 3 3 3 2 3 3 2 3 3 3 3 4
4 6 3 3 2 2 2 3 4 4 4 4 5 6 6 5 5 5 5 4 4 3 4 5 4 3 5 4 2 2 3 3 3 3 3 3 3 3 3 4 4 4 4 5
5 5 4 3 3 4 4 4 5 5 4 5 5 6 6 6 6 5 5 4 3 4 5 6 4 4 4 3 3 3 3 3 3 3 3 3 3 4 5 5 5 5 5 5
6 5 4 5 4 4 4 5 6 5 6 5 5 6 5 6 5 5 5 5 4 5 6 6 5 5 4 3 3 3 3 3 3 3 3 3 3 4 6 7 9 10 9 7
6 4 5 6 6 4 5 6 6 5 6 6 5 4 4 5 5 5 5 5 6 6 6 5 5 5 5 3 3 4 4 4 3 3 3 3 3 3 4 4 6 8 9 9
5 4 5 5 5 5 4 5 4 5 5 4 4 4 4 4 5 5 6 6 6 5 6 5 5 6 5 4 4 4 4 4 4 3 3 3 4 4 3 4 4 3 5 7
5 4 6 5 5 5 4 4 4 5 4 4 4 4 4 5 6 6 6 5 5 5 5 5 6 7 4 3 4 4 3 3 3 3 3 3 3 3 3 4 4 4 3 4
4 3 3 4 5 5 4 4 4 5 5 5 5 5 5 5 5 6 5 4 4 6 6 5 6 6 4 3 4 3 3 5 4 3 3 3 3 3 4 4 4 4 4 3
3 4 4 4 5 6 5 5 5 5 5 5 5 5 5 4 5 6 6 5 5 6 6 6 6 5 4 3 3 3 2 3 4 3 3 3 3 4 4 4 4 4 4 5
5 6 5 5 5 6 5 4 4 4 4 5 4 4 4 4 6 6 6 5 5 6 6 5 5 4 4 3 3 2 2 2 2 3 3 3 3 4 4 4 5 5 4 4
3 4 4 4 4 4 4 4 4 4 4 3 4 4 5 5 5 6 5 4 5 6 6 4 6 4 4 4 3 2 2 3 3 3 3 5 4 3 3 4 4 4 4 4
2 3 3 3 3 2 3 3 3 3 4 3 4 4 5 5 5 5 5 5 5 5 5 5 4 4 3 4 4 2 2 3 3 3 3 3 3 3 3 4 4 4 4 4
3 3 3 3 3 3 3 2 2 3 4 3 3 5 6 6 5 4 4 5 5 4 4 6 4 3 3 4 4 2 2 3 3 3 3 3 3 3 3 4 4 4 4 4
3 3 3 3 3 4 4 3 3 3 4 4 4 4 5 5 5 5 5 5 5 7 5 3 3 5 6 5 2 2 3 3 3 3 3 3 3 4 4 4 4 4 4 4
4 4 3 3 3 3 4 3 3 3 4 4 5 5 5 5 4 4 6 4 4 7 5 4 6 9 9 4 2 3 3 4 4 4 4 4 4 4 4 4 4 4 4 4
4 4 4 3 2 3 4 5 4 3 4 5 5 5 5 4 4 4 4 7 9 9 5 6 9 10 9 3 3 3 3 3 4 4 4 4 4 4 4 4 4 4 4 4
4 4 3 3 3 3 4 4 4 4 4 4 5 5 4 3 4 5 4 5 8 9 5 7 10 9 5 3 3 3 3 4 4 4 4 4 4 4 4 4 4 4 4 4
4 3 3 3 3 3 3 3 3 4 4 5 5 4 4 3 4 4 4 5 6 8 6 4 5 6 3 3 4 4 4 4 4 4 4 4 4 4 4 4 5 4 4 4
3 3 3 3 3 2 2 3 3 4 4 4 6 5 4 4 4 4 5 4 5 5 4 4 4 4 4 4 4 4 4 4 4 4 4 3 3 4 4 4 4 3 3 3
Wind_Direction
250 261 249 246 245 213 204 208 217 242 249 274 289 296 299 304 316 329 324 318 288 262 246 226 214 213 208 210 199 188 186 195 209 204 200 202 202 204 203 203 209 208 210 220
273 250 249 259 250 228 226 227 239 261 272 271 282 304 315 314 312 310 303 298 291 279 265 246 229 220 210 213 208 191 197 210 208 191 192 203 208 203 204 210 213 209 213 217
270 299 320 271 235 202 204 211 203 226 249 292 306 304 293 294 294 286 290 293 289 277 265 256 243 222 216 217 198 192 206 211 203 197 203 210 207 201 210 216 213 219 223 220
280 356 252 252 201 179 195 237 218 236 264 270 267 279 277 267 264 280 289 290 287 282 277 269 255 236 221 195 188 199 210 216 210 204 213 212 206 215 221 215 214 221 227 227
197 251 274 288 236 176 188 267 225 230 265 281 298 335 311 274 237 255 269 273 273 270 266 270 265 243 200 198 195 200 216 221 217 209 213 213 218 227 223 215 222 224 227 226
188 221 247 251 250 185 122 280 258 217 259 288 20 336 289 300 304 294 293 286 284 285 280 276 272 233 184 225 219 229 231 227 220 211 211 219 225 228 224 217 225 225 234 231
210 231 262 261 248 122 171 252 293 235 249 245 237 246 276 300 300 290 291 293 294 294 285 271 262 189 218 239 243 244 238 229 225 219 220 226 230 231 226 221 222 227 238 243
186 215 250 228 129 173 225 283 300 284 270 264 270 282 289 290 289 295 302 303 301 299 292 289 258 203 236 249 252 250 229 231 237 235 231 225 222 233 223 213 221 232 237 253
197 215 254 162 188 233 260 294 292 284 285 275 281 285 288 286 285 291 290 291 292 284 290 292 266 221 240 256 257 243 235 241 247 248 240 223 217 226 228 216 222 234 231 246
248 265 270 265 273 289 279 278 287 285 287 282 280 285 288 286 285 286 287 287 289 286 285 285 275 251 243 253 240 223 236 248 246 240 247 239 226 220 220 220 226 232 233 241
249 270 297 275 260 273 289 291 293 291 282 273 275 282 280 281 282 283 286 286 281 273 272 272 272 265 259 246 219 223 236 242 245 239 234 238 236 227 227 228 221 225 231 228
237 233 234 263 273 275 275 279 282 288 291 287 267 268 277 280 279 278 281 286 284 276 270 271 270 268 265 249 220 222 240 243 241 242 239 235 246 268 250 245 255 250 248 243
245 263 255 265 278 272 265 272 279 274 271 282 283 273 276 284 286 286 286 285 280 276 272 273 273 272 265 246 226 223 235 242 245 242 237 236 236 246 272 279 264 259 256 254
248 262 272 272 277 282 279 282 285 287 283 277 281 289 287 292 295 292 288 287 287 283 278 275 273 271 265 244 232 235 237 241 240 238 235 236 237 241 244 254 272 273 263 261
257 245 251 273 289 296 296 300 304 299 297 297 292 287 287 292 292 292 295 297 296 290 284 279 275 277 275 247 237 239 238 240 236 234 233 236 239 241 243 244 252 263 271 271
281 282 268 272 280 288 294 293 287 287 291 293 296 293 286 283 287 294 298 297 294 290 287 282 275 277 274 254 246 246 244 246 244 238 232 232 234 237 241 242 246 247 248 248
265 276 278 284 284 286 283 274 269 277 284 284 284 288 292 296 298 296 296 293 283 280 281 278 276 279 272 257 246 247 249 252 250 248 239 235 235 237 240 240 243 247 248 244
236 244 248 249 261 276 284 283 277 277 276 275 281 285 286 285 285 288 293 300 301 296 287 276 277 279 274 266 255 247 245 249 249 250 252 247 244 238 239 242 244 248 255 255
263 259 263 262 261 259 266 276 282 281 281 282 284 284 280 279 281 286 292 296 296 296 296 292 295 293 283 276 272 251 246 254 261 262 257 261 262 245 242 244 247 245 246 247
302 298 298 299 298 276 277 286 293 298 296 291 289 293 296 296 294 296 297 287 275 274 287 299 299 291 284 280 281 261 254 256 260 264 263 254 253 255 251 248 248 248 247 244
302 305 305 303 308 305 293 286 287 292 297 295 286 287 292 297 298 297 296 295 294 292 294 298 297 288 286 283 283 260 255 257 257 256 259 258 257 256 254 253 253 253 252 250
285 287 289 292 299 304 306 300 287 287 296 298 293 288 292 296 298 295 277 271 288 303 306 292 289 290 293 295 276 260 258 259 260 256 255 255 254 255 255 253 253 255 253 251
285 282 281 277 275 284 297 297 287 285 290 294 293 292 290 290 289 290 295 295 297 305 307 291 294 298 302 301 273 261 260 261 260 258 256 255 252 250 253 255 255 256 254 251
284 286 283 282 284 287 291 294 296 292 288 287 282 280 282 292 293 275 274 298 308 309 305 301 305 304 307 298 280 272 267 265 263 260 259 258 255 251 252 254 256 257 256 253
282 281 279 281 282 278 279 289 299 299 298 295 293 290 282 267 273 290 295 297 305 311 306 306 307 308 307 291 284 277 272 266 266 266 258 258 258 256 255 253 252 255 256 253
284 283 281 274 269 275 284 290 291 295 300 301 302 297 293 288 282 285 290 293 296 304 305 302 302 303 297 290 286 283 279 283 287 281 270 267 263 262 261 259 258 256 255 252
296 293 295 297 293 287 289 289 290 293 294 293 296 297 297 297 295 294 295 297 299 300 298 297 295 293 291 289 289 287 285 282 279 276 273 266 263 262 263 262 262 261 258 254